Date String (YYYY-MM-DD hh:mm:ss) UTC,Instrument flags,Ambient pressure (hPa),Sample flow (lpm),Bypass flow (lpm),Sample temperature (°C),Ambient temperature (°C),ASC tube jacket temperature (°C),LED temperature (°C),Box temperature (°C),Sample RH (%),Span deviation,Mass concentration (μg/m³),Mass concentration (μg/m³),Mass concentration (μg/m³)
DateTimeUTC,F1_M11,P_M11,Q1_M11,Q2_M11,T1_M11,T2_M11,T3_M11,T4_M11,T5_M11,U1_M11,ZSPAN_M11,X2_M11,X0_M11,X1_M11
2021-09-24 23:00:00,,0831.1,5.01,0.00,29.5,26.3,00.0,38.7,30.9,17.2,0000.7,0007.21,0029.40,0005.21
2021-09-24 23:01:00,,0831.2,5.00,0.00,29.5,26.8,00.0,38.6,31.1,17.2,0000.4,0007.25,0026.97,0005.21
2021-09-24 23:02:00,,0831.2,5.00,0.00,29.5,27.2,00.0,38.6,31.2,17.2,0000.5,0007.32,0025.82,0005.23
2021-09-24 23:03:00,,0831.2,4.99,0.00,29.5,27.6,00.0,38.6,31.3,17.1,0000.5,0007.33,0026.28,0005.23
2021-09-24 23:04:00,,0831.2,5.01,0.00,29.5,27.9,00.0,38.6,31.4,17.1,0000.5,0007.25,0024.70,0005.22
2021-09-24 23:05:00,,0831.2,5.02,0.00,29.6,28.2,00.0,38.6,31.4,17.1,0000.4,0007.29,0025.07,0005.23
2021-09-24 23:06:00,,0831.2,5.00,0.00,29.6,28.4,00.0,38.6,31.5,17.1,0000.5,0007.32,0024.69,0005.23
2021-09-24 23:07:00,,0831.2,5.01,0.00,29.7,28.6,00.0,38.6,31.6,17.1,0000.7,0007.28,0023.17,0005.22
2021-09-24 23:08:00,,0831.2,5.01,0.00,29.7,28.7,00.0,38.7,31.6,17.0,0000.8,0007.22,0023.44,0005.22
2021-09-24 23:09:00,,0831.2,4.99,0.00,29.8,28.9,00.0,38.7,31.7,16.9,0000.7,0007.19,0023.03,0005.22
2021-09-24 23:10:00,,0831.2,5.00,0.00,29.8,29.0,00.0,38.7,31.8,17.0,0001.3,0007.21,0022.76,0005.23
2021-09-24 23:11:00,,0831.2,5.01,0.00,29.9,29.1,00.0,38.8,31.8,16.9,0001.3,0007.15,0021.56,0005.20
2021-09-24 23:12:00,,0831.1,5.00,0.00,29.9,29.2,00.0,38.8,31.9,16.8,0001.9,0007.15,0021.60,0005.19
2021-09-24 23:13:00,,0831.2,4.99,0.00,30.0,28.5,00.0,38.8,31.7,16.7,0002.1,0007.06,0021.68,0005.16
2021-09-24 23:14:00,,0831.2,5.00,0.00,29.8,26.4,00.0,38.8,31.0,16.8,0001.7,0007.07,0020.77,0005.16
2021-09-24 23:15:00,,0831.2,4.99,0.00,29.6,25.7,00.0,38.7,30.8,17.0,0002.7,0007.17,0020.74,0005.19
2021-09-24 23:16:00,,0831.1,5.00,0.00,29.5,26.1,00.0,38.7,31.0,17.1,0003.3,0007.11,0019.83,0005.20
2021-09-24 23:17:00,,0831.2,5.00,0.00,29.5,26.6,00.0,38.7,31.0,17.1,0003.2,0007.13,0020.27,0005.22
2021-09-24 23:18:00,,0831.2,5.00,0.00,29.5,27.0,00.0,38.6,31.1,17.1,0003.4,0007.18,0021.61,0005.24
2021-09-24 23:19:00,,0831.2,5.02,0.00,29.5,27.4,00.0,38.6,31.2,17.2,0003.6,0007.29,0023.27,0005.27
2021-09-24 23:20:00,,0831.2,4.99,0.00,29.5,27.8,00.0,38.6,31.3,17.2,0003.3,0007.29,0023.26,0005.27
2021-09-24 23:21:00,,0831.2,4.99,0.00,29.6,28.1,00.0,38.6,31.4,17.2,0002.7,0007.28,0023.88,0005.28
2021-09-24 23:22:00,,0831.2,5.01,0.00,29.6,28.3,00.0,38.6,31.5,17.1,0003.0,0007.27,0024.63,0005.28
2021-09-24 23:23:00,,0831.1,5.00,0.00,29.7,28.5,00.0,38.6,31.6,17.0,0002.3,0007.18,0025.31,0005.27
2021-09-24 23:24:00,,0831.2,5.01,0.00,29.7,28.7,00.0,38.7,31.6,16.9,0002.4,0007.23,0026.29,0005.26
2021-09-24 23:25:00,,0831.2,4.99,0.00,29.8,28.8,00.0,38.7,31.7,16.9,0002.8,0007.20,0026.71,0005.25
2021-09-24 23:26:00,,0831.2,4.99,0.00,29.8,29.0,00.0,38.7,31.8,17.0,0001.8,0007.15,0026.81,0005.21
2021-09-24 23:27:00,,0831.2,5.01,0.00,29.9,29.1,00.0,38.8,31.8,16.8,0001.3,0007.19,0027.15,0005.18
2021-09-24 23:28:00,,0831.2,4.99,0.00,29.9,29.2,00.0,38.8,31.9,16.8,0001.5,0007.16,0027.96,0005.14
2021-09-24 23:29:00,,0831.2,5.01,0.00,30.0,28.6,00.0,38.8,31.7,16.7,0001.1,0007.07,0027.64,0005.10
2021-09-24 23:30:00,,0831.2,4.99,0.00,29.8,26.5,00.0,38.8,31.1,16.8,0000.6,0006.95,0026.20,0005.05
2021-09-24 23:31:00,,0831.2,4.99,0.00,29.6,25.7,00.0,38.8,30.8,17.0,0000.0,0006.93,0026.03,0004.99
2021-09-24 23:32:00,,0831.1,5.01,0.00,29.5,26.1,00.0,38.7,30.9,17.0,0000.0,0006.93,0025.86,0004.95
2021-09-24 23:33:00,,0831.2,5.00,0.00,29.5,26.6,00.0,38.7,31.0,17.1,0000.0,0006.97,0025.37,0004.93
2021-09-24 23:34:00,,0831.2,5.01,0.00,29.5,27.0,00.0,38.6,31.1,17.0,0000.5,0007.01,0024.87,0004.90
2021-09-24 23:35:00,,0831.2,4.99,0.00,29.5,27.5,00.0,38.6,31.2,17.0,0000.0,0006.95,0023.49,0004.87
2021-09-24 23:36:00,,0831.3,5.00,0.00,29.5,27.9,00.0,38.6,31.3,17.0,0000.0,0006.92,0022.77,0004.83
2021-09-24 23:37:00,,0831.3,5.01,0.00,29.6,28.1,00.0,38.6,31.4,17.0,0000.0,0006.87,0023.95,0004.80
2021-09-24 23:38:00,,0831.3,4.99,0.00,29.6,28.4,00.0,38.6,31.5,17.0,0000.0,0006.82,0024.21,0004.80
2021-09-24 23:39:00,,0831.2,5.00,0.00,29.7,28.6,00.0,38.6,31.5,16.9,0000.0,0006.77,0023.25,0004.78
2021-09-24 23:40:00,,0831.2,5.00,0.00,29.7,28.8,00.0,38.7,31.6,16.9,0002.3,0006.80,0021.90,0004.76
2021-09-24 23:41:00,,0831.3,5.01,0.00,29.8,28.9,00.0,38.7,31.7,16.9,0003.8,0006.82,0023.73,0004.75
2021-09-24 23:42:00,,0831.3,4.98,0.00,29.8,29.0,00.0,38.7,31.8,16.8,0003.0,0006.76,0024.87,0004.73
2021-09-24 23:43:00,,0831.3,5.00,0.00,29.9,29.1,00.0,38.8,31.8,16.9,0002.6,0006.70,0024.15,0004.73
2021-09-24 23:44:00,,0831.3,4.99,0.00,29.9,29.1,00.0,38.8,31.8,17.0,0000.8,0006.66,0024.58,0004.71
2021-09-24 23:45:00,,0831.3,5.00,0.00,29.9,27.4,00.0,38.8,31.4,16.9,0000.2,0006.67,0024.75,0004.70
2021-09-24 23:46:00,,0831.3,4.99,0.00,29.7,25.7,00.0,38.8,30.8,17.1,0000.0,0006.70,0024.66,0004.70
2021-09-24 23:47:00,,0831.2,5.00,0.00,29.5,25.8,00.0,38.7,30.8,17.3,0000.0,0006.74,0025.46,0004.70
2021-09-24 23:48:00,,0831.2,5.01,0.00,29.5,26.2,00.0,38.7,30.9,17.3,0000.3,0006.76,0024.70,0004.71
2021-09-24 23:49:00,,0831.2,5.00,0.00,29.4,26.7,00.0,38.6,31.0,17.4,0000.0,0006.76,0025.48,0004.69
2021-09-24 23:50:00,,0831.2,5.00,0.00,29.4,27.2,00.0,38.6,31.2,17.3,0000.0,0006.80,0026.99,0004.70
2021-09-24 23:51:00,,0831.2,4.99,0.00,29.5,27.6,00.0,38.6,31.3,17.3,0000.0,0006.79,0027.47,0004.72
2021-09-24 23:52:00,,0831.3,5.01,0.00,29.5,27.9,00.0,38.6,31.4,17.4,0000.0,0006.77,0025.94,0004.73
2021-09-24 23:53:00,,0831.3,5.01,0.00,29.6,28.2,00.0,38.6,31.4,17.4,0000.0,0006.83,0024.60,0004.76
2021-09-24 23:54:00,,0831.3,4.99,0.00,29.6,28.4,00.0,38.6,31.5,17.3,0000.0,0006.84,0025.26,0004.76
2021-09-24 23:55:00,,0831.3,5.01,0.00,29.7,28.6,00.0,38.6,31.6,17.2,0000.0,0006.83,0025.67,0004.76
2021-09-24 23:56:00,,0831.4,5.01,0.00,29.7,28.7,00.0,38.7,31.7,17.1,0000.0,0006.79,0025.31,0004.76
2021-09-24 23:57:00,,0831.4,5.00,0.00,29.8,28.9,00.0,38.7,31.7,17.1,0000.0,0006.79,0027.40,0004.76
2021-09-24 23:58:00,,0831.3,4.99,0.00,29.8,29.0,00.0,38.7,31.7,16.9,0000.0,0006.76,0027.79,0004.77
2021-09-24 23:59:00,,0831.3,5.01,0.00,29.9,29.1,00.0,38.8,31.8,16.7,0000.0,0006.80,0028.88,0004.76
